www.pogodaiklimat.ru

Погода и климат >> Архив погоды >> ОАЭ >> Эль-Айн


ПОГОДА в Эль-Айне

  • Прогноз погоды в Эль-Айне
  • Монитор погоды в Эль-Айне

АРХИВ ПОГОДЫ в Эль-Айне

Время (UTC), дата Ветер
(напр.,м/с)
 
Видим.   Явления Облачность Т
(С)
Тd
(С)
f
(%)
Тe
(С)
Тes
(С)
Комфортность P
(гПа)
Po
(гПа)
Тmin
(С)
Tmax
(С)
R
(мм)
R24
(мм)
S
(см)
18 18.06 СЗ 3 10 км 4/0
[Ci fib]
+35.2 +21.1 44 +42 +42 опасность
перегрева
998.0 969.3 +46.1
21 18.06 З 2 8000 м мгла 4/0
[Ci fib]
+31.6 +23.6 63 +43 +43 опасность
перегрева
997.6 968.6
00 19.06 ЮВ 2 8000 м мгла 4/0
[Ci fib]
+29.7 +22.1 64 +39 +39 очень
душно
997.5 968.3
03 19.06 Ю 3 9000 м мгла ясно +29.6 +22.5 66 +39 +41 очень
душно
998.0 968.8
06 19.06 З 4 9000 м пыль ясно +36.0 +18.5 36 +40 +51 опасность
солнечного
удара
997.4 968.8 +28.6
09 19.06 З 6 8000 м пыль ясно +42.3 +10.9 16 +41 +49 опасность
перегрева
995.4 967.4
12 19.06 З 6 8000 м пыль ясно +41.6 +12.2 18 +41 +45 опасность
перегрева
994.0 966.0
15 19.06 З 7 8000 м пыль ясно +37.3 +19.2 35 +42 +42 опасность
перегрева
995.2 966.7
18 19.06 З 4 8000 м пыль ясно +31.7 +22.3 58 +41 +41 опасность
перегрева
998.1 969.1 +43.5
21 19.06 З 3 10 км ясно +29.7 +22.1 64 +39 +39 очень
душно
997.7 968.5
00 20.06 ЮЗ 2 10 км ясно +28.9 +22.5 68 +38 +38 очень
душно
997.3 968.0
03 20.06 Ю 4 10 км ясно +28.5 +22.4 70 +37 +39 очень
душно
998.7 969.3
06 20.06 Ю 3 10 км ясно +33.4 +21.2 49 +41 +56 опасность
перегрева
998.9 970.0 +27.9
09 20.06 ЮЗ 2 10 км ясно +39.6 +15.1 24 +41 +62 опасность
перегрева
996.9 968.6
12 20.06 Ю 3 10 км ясно +42.7 +14.0 19 +43 +50 опасность
перегрева
994.3 966.4
15 20.06 СЗ 8 6000 м пыль 3/0
[Ac trans]
+38.6 +25.2 47 +52 +52 опасность
перегрева
995.2 966.8
18 20.06 СЗ 6 8000 м пыль ясно +33.2 +26.2 67 +49 +49 опасность
перегрева
997.8 968.9 +43.5
21 20.06 З 3 6000 м мгла 3/3 450 м
[St]
+31.2 +28.2 84 +52 +52 опасность
перегрева
998.2 969.1
00 21.06 З 3 5000 м мгла 4/4 300 м
[St]
+30.5 +28.3 88 +51 +51 опасность
перегрева
998.4 969.2
03 21.06 нст 1 4500 м мгла ясно +30.6 +28.0 86 +51 +53 опасность
перегрева
1000.1 970.9
06 21.06 Ю 2 7000 м мгла ясно +35.3 +27.7 65 +55 +73 опасность
перегрева
1000.3 971.5 +30.1
09 21.06 Ю 5 7000 м пыль 3/3 1200 м
[Sc]
+41.2 +20.7 31 +47 +56 опасность
перегрева
998.5 970.3
12 21.06 ЮЗ 4 8000 м пыль 3/0
[Ci fib]
+42.4 +12.9 18 +42 +48 опасность
перегрева
996.4 968.4
15 21.06 СЗ 8 9000 м пыль 3/0
[Ci fib]
+38.0 +21.6 39 +46 +46 опасность
перегрева
997.3 968.9
18 21.06 СЗ 4 10 км ясно +36.0 +22.9 47 +46 +46 опасность
перегрева
999.3 970.6 +43.2
21 21.06 СЗ 3 10 км ясно +33.3 +22.7 54 +43 +43 опасность
перегрева
999.3 970.4
00 22.06 З 2 10 км ясно +31.3 +23.6 64 +42 +42 опасность
перегрева
999.7 970.6
03 22.06 Ю 4 8000 м пыль ясно +32.4 +12.4 30 +33 +35 жарко 1001.4 972.3
06 22.06 Ю 6 7000 м пыль ясно +38.3 +13.3 23 +39 +46 очень
душно
1001.3 972.8 +30.8
09 22.06 Ю 3 8000 м пыль ясно +42.0 +10.6 16 +41 +60 опасность
перегрева
1000.0 971.8

 

Местоположение метеостанции Эль-Айн (ОАЭ): широта 24.27 долгота 55.60 высота над уровнем моря 262 м.

В архиве по умолчанию представлена погода в Эль-Айне за последнюю неделю. Архивные данные за месяц целиком и за предыдущие месяцы, начиная с января 2011 года, Вы можете получить, выбрав интересующий диапазон дат из раскрывающегося списка и нажав кнопку "Ввод!".


*Определитесь, кто Вы:
робот инопланетянин человек

Внимание! Время в таблицах - всемирное. Для получения местного времени необходимо прибавить поправку, которая равна 4 ч.

Смотрите также архив погоды в соседних городах и на ближайших метеорологических станциях:

Погода в Эль-Бурайми (Оман) (19 км)
Погода в Кумейре (Оман) (72 км)
Погода в Аль-Мактум аэропорту (ОАЭ) (83 км)
Погода в Абу-Даби (ОАЭ) (98 км)
Погода в Сухаре (Оман) (107 км)
Погода в Дубае (ОАЭ) (112 км)
Погода в Абу-Даби Батин аэропорту (ОАЭ) (117 км)
Погода в Фуджейре (ОАЭ) (118 км)
Погода в Шардже (ОАЭ) (118 км)
Погода в Ибри (Оман) (133 км)

Пояснения к столбцам:

Ветер - указаны скорость ветра в м/с - средняя за 10 мин, порывы в срок и между сроками (в фигурных скобках) и направление, откуда дует ветер: С - северный, СВ - северо-восточный, В - восточный, ЮВ - юго-восточный, Ю - южный, ЮЗ - юго-западный, З - западный, СЗ - северо-западный.
Видимость - горизонтальная дальность видимости в метрах или километрах. При видимости от 1 до 10 км при отсутствии осадков обычно наблюдается дымка, при ухудшении видимости до 1 км и менее - туман. В сухую погоду видимость может ухудшаться дымом, пылью или мглою.
Явления - указаны атмосферные явления, наблюдавшиеся в срок или в последний час перед сроком; фигурными скобками обозначены явления, наблюдавшиеся между сроками (за 1-3 часа до срока); квадратными скобками обозначены град или гололедные отложения с указанием их диаметра в мм.
Облачность - указаны через наклонную черту общая и нижняя облачность в баллах и высота нижней границы облаков в метрах; квадратными скобками обозначены формы облаков: Ci - перистые, Cs - перисто-слоистые, Cc - перисто-кучевые, Ac - высококучевые, As - высокослоистые, Sc - слоисто-кучевые, Ns - слоисто-дождевые, Cu - кучевые, Cb - кучево-дождевые. Подробнее классификацию облаков см. в Атласе облаков (PDF).
T - Температура воздуха - температура, измеренная на высоте 2 м над землей.
Td - Температура точки росы - температура, при понижении до которой содержащийся в воздухе водяной пар достигнет насыщения.
f - Относительная влажность воздуха - влажноcть воздуха, измеренная на высоте 2 м над землей.
Te - Эффективная температура - температура, которую ощущает одетый по сезону человек в тени. Характеристика душности погоды. При расчете учитывается влияние влажности воздуха и скорости ветра на теплоощущения человека.
Tes - Эффективная температура на солнце - температура, которую ощущает человек, с поправкой на солнечный нагрев. Характеристика знойности погоды. Зависит от высоты солнца над горизонтом, облачности и скорости ветра. Ночью, в пасмурную погоду, а также при ветре 12 м/с и более поправка равна нулю.
P - Атмосферное давление - приведенное к уровню моря атмосферное давление.
Po - Атмосферное давление - измеренное на уровне метеостанции атмосферное давление.
Tmin - Минимальная температура - минимум температуры воздуха на высоте 2 м над землей.
Tmax - Максимальная температура - максимум температуры воздуха на высоте 2 м над землей.
R - Количество осадков - Количество выпавших осадков за период времени, мм. При наведении курсора мыши на число - период времени, за который выпало указанное количество осадков.
R24 - Количество осадков - Количество выпавших осадков за 24 часа, мм.
S - Снежный покров - Высота снежного покрова, см. При наведении курсора мыши на число - состояние снежного покрова и степень покрытия местности в баллах.